Regional Weather Roundup
Issued by NWS

Home | Current Version | Previous Version | Graphics & Text | Print | Product List | Glossary On
Versions: 1 2 3 4 5 6 7 8 9 10 11 12 13 14 15 16 17 18 19 20 21 22 23 24 25 26 27 28 29 30 31 32 33 34 35 36 37 38 39 40 41 42 43 44 45 46 47 48 49 50
000
ASUS43 KLMK 262310
RWRKY
KENTUCKY REGIONAL WEATHER ROUNDUP
NATIONAL WEATHER SERVICE LOUISVILLE KY
700 PM EDT MON JUN 26 2017

NOTE "FAIR" INDICATES FEW OR NO CLOUDS BELOW 12,000 FEET
WITH NO SIGNIFICANT WEATHER AND/OR OBSTRUCTIONS TO VISIBILITY.

KYZ001>023-026-027-061>063-070>075-270000-
WESTERN AND SOUTH CENTRAL KENTUCKY

CITY           SKY/WX    TMP DP  RH WIND       PRES   REMARKS
PADUCAH        CLOUDY    77  51  40 CALM      30.09F
HENDERSON      MOSUNNY   74  57  55 SW3       30.09F
OWENSBORO      SUNNY     76  48  37 N3        30.09F
HOPKINSVILLE   MOSUNNY   76  50  40 NW6       30.10F
BOWLING GREEN  CLOUDY    77  51  40 N5        30.10F
GLASGOW        MOSUNNY   77  49  37 N5        30.10F
$$

KYZ024-025-028>034-038-045-046-053-270000-
NORTH CENTRAL KENTUCKY

CITY           SKY/WX    TMP DP  RH WIND       PRES   REMARKS
LOUISVILLE/SDF PTSUNNY   75  48  38 NW14      30.08F
LOUISVILLE/LOU MOSUNNY   76  48  37 NW9       30.08F
FORT KNOX      MOSUNNY   74  51  43 W6        30.08F
$$

KYZ035>037-039>044-047>052-055>060-089>105-270000-
NORTHEAST KENTUCKY

CITY           SKY/WX    TMP DP  RH WIND       PRES   REMARKS
LEXINGTON      MOSUNNY   74  47  38 W6        30.10F
COVINGTON      CLOUDY    70  51  51 W10       30.07F
FRANKFORT      MOSUNNY   74  47  38 NW5       30.08F
$$

KYZ054-064>069-076>088-106>120-270000-
SOUTHEAST KENTUCKY

CITY           SKY/WX    TMP DP  RH WIND       PRES   REMARKS
JACKSON        SUNNY     74  52  46 MISG      30.11S
LONDON         MOSUNNY   74  48  39 N10       30.12R
SOMERSET       MOSUNNY   73  48  40 CALM      30.12F
MIDDLESBORO    SUNNY     76  52  43 NW8       30.10S
MONTICELLO     CLEAR     75  50  41 NW8       30.13F
$$





USA.gov is the U.S. government's official web portal to all federal, state and local government web resources and services.